NOAA 16 DEB

Satellite information

Favourite Embed

Satellite Type and Status

DEBRISIN ORBIT

Key statistics

Satellite NOAA 16 DEB at a glance.

Uptime

9170

Days in orbit

Revolutions

≈ 14.3

Per day

Orbit

SSO

Sun Synchronous Orbit

Inclination

99.0

Latest

Satellite identification and parameters

Extended collection of information and parameters for NOAA 16 DEB.

Object identification

Identified? True

Debris? True

Object name: NOAA 16 DEB

International designator: 2000-055BA

Object number (NORAD): 41091

Object ID (CCSDS): 41091

Country: UNITED STATES OF AMERICA (US)

Current information (Y/N): Y

RCS size: SMALL

Orbital parameters

Period: 100.495 minutes

Inclination: 98.9669 deg

SMA: 7160.146 km

Apoapsis: 812.434 km

Periapsis: 751.588 km

RAAN: 58.7043 deg

Eccentricy: 0.00424891

Argument of periapsis: 131.3992 deg

Mean anomaly: 229.0856 deg

Mean motion: 14.3291337 rev/day

Mean motion (dot): 0.00012582 rev/day2

B* drag term: 0.0045678805 1/REarth

Two-line elements (TLE)

Creation date: Oct. 30, 2025, 3:32 a.m.

Reference frame: TEME

Reference center: EARTH

Epoch: Oct. 29, 2025, 5:54 p.m. UTC

TLE line 0: 0 NOAA 16 DEB

TLE line 1: 1 41091U 00055BA 25302.74617554 .00012582 00000-0 45679-2 0 9997

TLE line 2: 2 41091 98.9669 58.7043 0042489 131.3992 229.0856 14.32913370510423

Live tracking on map

Real-time ground track for satellite NOAA 16 DEB.

In-orbit conjunctions

A list of the most updated potential collisions computed for object NOAA 16 DEB.

Target Orbit TCA Probability of collision Miss distance Type
COSMOS 836 LEO 2025-08-04 19:16:51 0.0002020704 181.0 (m) PAYLOAD
SL-8 R/B LEO 2025-06-21 22:59:48 0.0001364694 870.0 (m) ROCKET BODY
SL-12 R/B(2) LEO 2025-04-20 21:56:38 0.0001058361 258.0 (m) ROCKET BODY
SL-16 DEB LEO 2024-10-11 15:58:44 0.0001048075 133.0 (m) DEBRIS
SL-16 DEB LEO 2024-09-22 13:30:34 0.0001729128 268.0 (m) DEBRIS

Associated space launch

The NOAA K, L and M POES satellites begin the fifth generation of improved environmental monitoring in support of NOAA missions. The instrument payload has significant improvements and additions/deletions. The instrument changes have effected the spacecraft subsystems and data formats.

NOAA 16 DEB was lifted into orbit during the mission ‘Titan II SLV | NOAA 16’, on board a Titan II SLV space rocket.

The launch took place on Sept. 21, 2000, 10:22 a.m. from Space Launch Complex 4W.

For more information about the launch, click the button.

Launch to space Titan II SLV | NOAA 16
Titan II SLV | NOAA 16

Agency: N/A

Status: Launch Successful

Launch date: Sept. 21, 2000, 10:22 a.m. UTC

Rocket: Titan II SLV

Launch pad: Space Launch Complex 4W

Location: Vandenberg SFB, CA, USA

...

Latest news about this satellite

There are no fresh news available about this satellite. Check back as we update our databases every day.


Newsletter sign-up

Weekly statistics, charts and insights to help you stay on top of the space industry.